Location: Watson Lake
(60.1170°N, 128.8000°W)
Time: 22:35:17
(UTC-08:00)

Daily predictions for brighter satellites

Satellite Brightness Start Highest point End
(mag) Time Altitude Azimuth Time Altitude Azimuth Time Altitude Azimuth
Cosmos 1821 Rocket 4.4 16:31:13 10° SSW 16:37:37 72° WNW 16:44:03 10° NNE
Meteor 2-2 Rocket 4.4 16:33:23 10° SSW 16:39:06 82° WNW 16:44:58 10° NNE
Iridium 4 Rocket 3.5 16:33:50 10° S 16:39:12 90° E 16:44:07 10° N
Cosmos 44 3.3 16:34:55 10° WNW 16:39:19 54° NNE 16:43:55 10° E
UNK 4.3 16:35:03 10° NNE 16:39:36 61° WNW 16:44:07 10° SW
Cosmos 1190 Rocket 4.2 16:35:36 10° SSW 16:40:50 62° ESE 16:46:04 10° NE
Cosmos 1763 Rocket 3.7 16:37:11 10° NNW 16:42:22 52° NE 16:47:28 10° SE
Cosmos 407 Rocket 3.6 16:38:27 10° SSW 16:43:31 60° ESE 16:48:36 10° NE
Meteor 1-27 4.3 16:39:01 10° S 16:44:51 79° ESE 16:50:40 10° NNE
YAOGAN 1 3.5 16:42:30 10° ESE 16:46:09 27° NE 16:49:49 10° N
Cosmos 1346 Rocket 3.4 16:44:31 10° SSE 16:48:09 38° E 16:51:51 10° NNE
CZ-4 R/B 2.1 16:45:28 10° ESE 16:48:50 30° ENE 16:52:14 10° N
COSMOS 2487 4.4 16:47:14 10° N 16:49:09 14° NNE 16:51:04 10° ENE
SL-27 R/B 3.3 16:47:56 10° NNW 16:50:51 27° NE 16:53:45 10° ESE
Cosmos 1814 Rocket 4.1 16:46:15 10° NNW 16:51:34 62° NE 16:56:53 10° SE
Cosmos 1833 Rocket 3.0 16:48:08 10° NW 16:53:35 47° NE 16:59:01 10° ESE
Cosmos 1408 3.1 16:49:58 10° NNW 16:53:39 64° W 16:57:16 10° S
Meteor 2-17 Rocket 4.5 16:47:38 10° S 16:53:45 70° E 16:59:54 10° NNE
ATLAS CENTAUR R/B 1.2 16:51:05 10° WSW 16:54:45 68° NNW 16:58:29 10° ENE
Okean-O 3.5 16:50:27 10° S 16:54:49 55° WSW 16:59:12 10° NNW
Cosmos 1707 Rocket 4.2 16:51:09 10° SSE 16:55:13 36° E 16:59:17 10° NNE
CSL-04 Debris 4.2 16:50:27 10° SE 16:55:46 58° ENE 17:01:05 10° NNW
USA 32 4.3 16:50:38 10° N 16:55:55 76° W 17:01:10 10° S
Aureole 3 3.7 16:52:26 10° N 16:56:16 53° ENE 17:01:04 10° SSE
Cosmos 1633 4.1 16:56:41 10° NNE 16:59:14 17° ENE 17:01:46 10° E
COSMOS 2441 4.4 16:56:03 10° SSE 17:00:57 78° ENE 17:05:53 10° NNW
FENGYUN 3A 4.5 16:57:13 10° ESE 17:01:46 28° NE 17:06:19 10° N
Cosmos 2227 4.4 16:56:26 10° SW 17:02:11 79° NW 17:08:00 10° NE
ALOS 3.3 16:58:28 10° ESE 17:02:11 24° NE 17:05:55 10° N
Cosmos 1607 4.2 16:56:08 10° WSW 17:02:33 74° NNW 17:08:59 10° ENE
Cosmos 2227 Rocket 3.2 16:59:07 10° W 17:04:23 37° NNW 17:09:40 10° NE
SJ-12 3.9 17:02:17 10° SSE 17:06:26 79° ENE 17:10:38 10° NNW
Cosmos 2278 Rocket 4.0 17:06:43 10° ESE 17:08:45 12° E 17:10:32 10° ENE
Cosmos 1862 3.3 17:05:10 10° NNW 17:09:13 88° ENE 17:13:15 10° SSE
Cosmos 2263 Rocket 2.3 17:05:16 10° SSW 17:10:52 69° ESE 17:16:29 10° NE
Cosmos 2173 Rocket 4.0 17:05:01 10° S 17:10:59 59° E 17:17:04 10° NNE
ATLAS 3B R/B 2.9 17:04:06 10° SW 17:11:16 72° SE 17:17:46 12° ENE
USA 238 DEB 3.9 17:04:34 10° SW 17:11:27 68° SE 17:18:05 12° ENE
USA 238 3.9 17:04:41 10° SW 17:11:34 68° SE 17:18:11 12° ENE
SMAP 3.1 17:07:24 10° SE 17:11:59 60° ENE 17:16:36 10° NNW
CZ-2C R/B 2.8 17:07:49 10° S 17:12:53 73° WSW 17:18:05 10° NNW
Cosmos 1605 Rocket 4.3 17:08:12 10° SSW 17:14:22 72° WNW 17:20:42 10° NNE
Cosmos 540 Rocket 3.8 17:09:31 10° NNW 17:14:31 44° NE 17:19:29 10° ESE
Cosmos 1484 Rocket 2.8 17:11:53 10° SSE 17:15:43 58° ENE 17:19:37 10° N
Cosmos 841 Rocket 3.5 17:10:56 10° NNW 17:16:13 65° NE 17:21:29 10° SE
Ariane Rocket 3.0 17:12:18 10° SSE 17:17:23 75° ENE 17:22:29 10° NNW
Cosmos 676 Rocket 4.0 17:12:37 10° SSW 17:17:53 72° ESE 17:23:09 10° NE
Cosmos 2228 Rocket 4.0 17:13:36 10° SW 17:18:02 50° WNW 17:22:27 10° N
USA 161 1.3 17:17:48 21° ENE 17:18:29 28° E 17:20:10 10° SSE
IDEFIX/ARIANE 42P 3.5 17:16:04 10° S 17:21:10 53° W 17:26:18 10° NNW
Cosmos 1908 Rocket 4.0 17:17:26 10° N 17:21:33 38° ENE 17:25:37 10° SE
Cosmos 1459 Rocket 4.0 17:16:11 10° S 17:22:28 70° E 17:28:43 10° NNE
CORIOLIS 4.1 17:17:48 10° SSE 17:23:13 69° ENE 17:28:40 10° NNW
Cosmos 1733 Rocket 3.0 17:20:28 10° NNW 17:24:55 72° ENE 17:29:22 10° SSE
IRAS Rocket 4.5 17:19:28 10° SSE 17:25:01 76° WSW 17:30:34 10° NNW
Cosmos 972 Rocket 4.1 17:20:23 10° NNW 17:25:31 79° WSW 17:30:25 10° SSE
AQUARIUS 4.1 17:23:51 10° SSE 17:28:20 75° ENE 17:32:52 10° NNW
Sich 1 Rocket 4.0 17:25:11 10° N 17:29:20 39° ENE 17:33:30 10° SE
Meteor 1-25 Rocket 4.4 17:23:41 10° NNW 17:29:28 56° ENE 17:35:12 10° SE
Cosmos 1741 Rocket 4.4 17:26:03 10° S 17:31:05 45° ESE 17:35:52 12° NE
Cosmos 2242 Rocket 4.1 17:29:18 10° SSE 17:33:31 38° E 17:37:43 10° NNE
Meteor 1-20 Rocket 4.3 17:28:28 10° NNW 17:34:01 54° ENE 17:39:28 10° SE
SL-16 R/B 3.6 17:28:20 10° NNE 17:34:14 44° NW 17:40:07 10° SW
Cosmos 2100 Rocket 4.0 17:28:41 10° S 17:34:57 84° E 17:41:20 10° NNE
Cosmos 2297 Rocket 3.3 17:31:09 10° W 17:36:15 33° NNW 17:40:50 12° NE
Cosmos 724 4.3 17:31:39 10° SW 17:37:37 85° SE 17:42:26 16° NE
Cosmos 2082 Rocket 2.2 17:31:59 10° NW 17:37:43 68° NE 17:43:24 10° SE
Cosmos 2233 Rocket 4.4 17:33:04 10° SSE 17:38:45 38° E 17:44:24 10° NNE
Lacrosse 5 2.8 17:34:10 10° SW 17:38:47 36° SSE 17:42:16 16° E
CZ-4C R/B 2.7 17:33:07 10° WNW 17:39:33 80° NNE 17:47:03 10° ESE
Resurs 01 Rocket 3.3 17:40:22 15° NE 17:40:32 15° NE 17:43:03 10° N
SPOT 3 Rocket 3.7 17:36:57 10° SE 17:41:58 50° ENE 17:47:00 10° NNW
Cosmos 44 Rocket 3.2 17:39:06 10° WNW 17:43:56 82° NNE 17:48:50 10° ESE
Cosmos 1346 2.8 17:41:56 10° S 17:44:06 39° ESE 17:44:29 35° ENE
Cosmos 972 4.4 17:38:47 10° NNW 17:44:12 87° ENE 17:49:10 10° SSE
H-2A R/B 4.0 17:43:58 21° ENE 17:44:41 22° NE 17:47:39 10° N
Cosmos 220 Rocket 4.0 17:40:22 10° SSW 17:44:49 84° ESE 17:48:43 13° NNE
Cosmos 1862 Rocket 4.1 17:40:44 10° SSE 17:44:51 38° E 17:49:01 10° NNE
NOSS 3-2 (C) 3.8 17:41:55 10° SSW 17:47:59 57° SE 17:53:07 18° ENE
SJ-6B 4.2 17:47:51 20° ENE 17:48:10 21° NE 17:51:12 10° N
Cosmos 1802 Rocket 3.9 17:42:27 10° S 17:48:37 84° E 17:54:47 10° NNE
Cosmos 1455 3.9 17:46:08 10° SW 17:49:34 32° WNW 17:53:00 10° N
Cosmos 1340 2.9 17:46:00 10° S 17:49:38 47° E 17:52:37 14° NNE
CSL-04 Rocket 4.1 17:46:30 10° S 17:51:47 64° WSW 17:57:10 10° NNW
NOAA 12 4.2 17:46:53 10° SE 17:52:01 51° ENE 17:57:10 10° NNW
Cosmos 614 Rocket 4.0 17:47:02 10° SSW 17:52:18 87° ESE 17:57:08 12° NNE
Cosmos 1437 3.5 17:51:31 10° SSE 17:54:22 31° E 17:54:50 29° ENE
Cosmos 304 Rocket 4.3 17:52:12 10° NW 17:57:00 63° WSW 18:01:45 10° SSE
NOSS 3-2 (A) 3.7 17:51:35 10° SW 17:57:49 71° SE 18:02:52 20° ENE
MONITOR-E 4.2 17:56:09 10° SE 17:59:07 50° ENE 18:02:07 10° N
Cosmos 1140 Rocket 3.5 17:54:13 10° SW 17:59:27 81° WNW 18:04:08 13° NNE
H-2A R/B 4.1 17:59:11 10° NNE 17:59:36 10° NNE 18:00:24 10° NNE
Cosmos 292 Rocket 3.8 17:55:09 10° NNW 17:59:52 55° NE 18:04:33 10° SE
Meteor 2-10 Rocket 3.5 17:56:01 10° S 18:01:19 81° ESE 18:06:54 10° NNE
Cosmos 1869 4.2 17:57:55 10° SW 18:01:46 49° WNW 18:05:39 10° N
SL-08 R/B 4.5 17:55:50 10° S 18:02:06 78° E 18:08:30 10° NNE
CZ-2C R/B 4.1 17:59:49 15° NNE 18:03:08 39° E 18:07:22 10° SSE
ERS-2 2.0 18:00:30 10° SSE 18:04:11 84° ENE 18:07:54 10° NNW
Cosmos 405 3.7 18:01:36 10° N 18:04:52 31° ENE 18:04:56 31° ENE
Cosmos 1782 Rocket 3.6 18:01:39 10° N 18:05:57 55° ENE 18:10:14 10° SSE
METEOR-M 4.1 18:00:40 10° SSE 18:06:01 82° ENE 18:11:24 10° NNW
Meteor 1-14 Rocket 4.3 18:01:57 10° NNW 18:07:46 84° WSW 18:13:24 10° S
COSMO-SKYMED 1 3.3 18:09:51 29° ENE 18:10:31 30° E 18:14:22 10° SSE
Cosmos 1954 Rocket 4.3 18:07:25 10° SW 18:12:39 66° NW 18:17:09 14° NNE
Cosmos 1725 Rocket 3.9 18:06:28 10° S 18:12:46 80° E 18:19:01 10° NNE
CENTAUR R/B 3.0 18:12:02 10° SSW 18:18:04 46° SE 18:21:48 25° ENE
USA 116 4.2 18:14:12 10° NNE 18:19:03 53° E 18:23:22 10° S
Cosmos 1844 Rocket 2.7 18:13:42 10° SSW 18:19:14 60° ESE 18:22:34 24° NE
Cosmos 2219 4.4 18:14:42 10° NW 18:19:34 28° N 18:21:53 21° NE
Cosmos 44 3.4 18:16:12 10° WNW 18:20:43 67° SW 18:24:57 13° SE
YAOGAN 1 2.9 18:17:39 10° S 18:21:59 67° WSW 18:26:20 10° NNW
Cosmos 2061 Rocket 4.4 18:16:28 10° SSW 18:22:46 66° WNW 18:29:09 10° NNE
Timation 2 Rocket 4.1 18:16:17 10° NW 18:23:13 74° NE 18:28:49 16° SE
CZ-4 R/B 2.3 18:20:03 10° S 18:23:48 47° W 18:27:32 10° NNW
Cosmos 1346 Rocket 4.3 18:20:59 10° SW 18:24:37 35° WNW 18:28:17 10° N
COSMOS 2487 2.8 18:21:59 10° NNW 18:25:19 44° NE 18:25:19 44° NE
COSMOS 2455 3.3 18:20:25 10° S 18:25:59 40° ESE 18:28:07 30° ENE
SL-27 R/B 3.2 18:22:59 10° NW 18:26:15 49° WSW 18:29:29 10° S
Nadezhda 4 Rocket 4.1 18:20:54 10° N 18:26:52 48° ENE 18:32:46 10° SE
Meteor 1-11 Rocket 3.9 18:21:21 10° NNW 18:27:14 56° ENE 18:32:57 10° SE
Cosmos 2151 Rocket 4.0 18:24:20 10° N 18:28:29 39° ENE 18:28:42 38° ENE
Cosmos 1933 3.6 18:26:56 10° SSW 18:30:57 69° WNW 18:34:55 11° N
Envisat 3.7 18:33:52 33° ENE 18:34:01 33° NE 18:38:33 10° N
ATLAS CENTAUR R/B 1.8 18:30:37 10° WNW 18:34:08 40° N 18:34:46 37° NNE
Cosmos 1633 2.6 18:31:00 10° NNW 18:34:42 82° WSW 18:38:22 10° S
Cosmos 2016 Rocket 4.4 18:28:30 10° SSW 18:34:47 65° WNW 18:41:01 10° N
Cosmos 1536 4.2 18:32:18 10° N 18:34:30 25° NNE 18:34:30 25° NNE
Cosmos 2034 Rocket 4.5 18:32:00 10° SSE 18:37:43 37° E 18:43:27 10° NNE
Cosmos 1833 Rocket 3.1 18:32:14 10° NW 18:37:48 64° WSW 18:43:22 10° SSE
ALOS 2.2 18:34:29 10° SSE 18:39:11 87° WSW 18:43:54 10° NNW
Meteor 1-26 Rocket 4.1 18:34:35 10° S 18:40:08 79° ESE 18:45:42 10° NNE
Cosmos 2285 Rocket 4.4 18:34:51 10° NNW 18:40:52 43° NE 18:42:44 35° ENE
FENGYUN 3A 3.6 18:36:08 10° SSE 18:41:34 87° WSW 18:47:01 10° NNW
Cosmos 1092 Rocket 4.2 18:36:00 10° N 18:41:55 46° ENE 18:44:33 30° ESE
Intercosmos 25 4.2 18:35:25 10° S 18:42:04 53° E 18:44:06 31° NE
Okean 2 Rocket 3.0 18:37:53 10° NNW 18:42:27 76° ENE 18:46:59 10° SSE
Meteor 1-28 Rocket 3.1 18:42:15 32° NNE 18:43:55 88° WNW 18:47:38 10° SSW
Cosmos 1703 Rocket 3.6 18:39:42 10° S 18:44:04 53° E 18:44:44 48° ENE
Meteor 2-12 Rocket 4.5 18:38:06 10° SSW 18:44:11 80° WNW 18:50:18 10° NNE
DNEPR-1 R/B 3.4 18:40:38 10° SW 18:44:51 70° SE 18:45:38 55° E
Cosmos 1844 3.7 18:39:54 10° SSW 18:45:39 69° ESE 18:48:20 33° NE
Cosmos 773 Rocket 4.2 18:42:37 10° NNW 18:47:39 49° NE 18:48:29 44° ENE
USA 161 4.3 18:48:05 10° WNW 18:48:05 10° WNW 18:48:11 10° WNW
Cosmos 2227 Rocket 3.5 18:45:04 10° WNW 18:49:56 28° N 18:51:47 23° NNE
Cosmos 1607 4.3 18:44:09 10° WNW 18:50:30 57° N 18:53:06 35° ENE
EO 1 Del DPAF 4.1 18:52:11 35° SSE 18:52:11 35° SSE 18:54:38 10° S
APEX 4.3 18:47:22 10° NW 18:51:10 37° NNE 18:51:10 37° NNE
Cosmos 2278 Rocket 2.4 18:46:07 10° S 18:51:31 47° ESE 18:52:24 43° E
Landsat 4 3.5 18:53:50 72° NE 18:54:11 83° ESE 18:58:00 10° SSW
Cosmos 2263 Rocket 3.0 18:49:46 10° WSW 18:55:10 45° NNW 18:58:21 23° NNE
Cosmos 540 Rocket 4.2 18:51:15 10° NW 18:56:18 54° WSW 19:01:20 10° S
Meteor 2-20 4.3 18:51:18 10° NNW 18:57:28 80° ENE 19:03:34 10° SSE
Cosmos 1606 4.4 18:54:01 10° S 18:55:26 21° S 18:55:26 21° S
Cosmos 1850 Rocket 4.4 18:53:00 10° SW 18:58:08 60° NW 19:01:15 24° NNE
SKYMED 2 3.4 18:58:26 63° ENE 18:58:51 68° ESE 19:03:11 10° S
ATLAS 3B R/B 2.8 18:55:06 10° W 19:02:12 70° NNW 19:05:01 38° ENE
USA 238 DEB 3.8 18:55:34 10° W 19:02:33 73° NNW 19:05:31 38° ENE
USA 238 3.8 18:55:40 10° W 19:02:40 73° NNW 19:05:37 38° ENE
Cosmos 1782 4.0 19:02:45 10° S 19:04:58 31° S 19:04:58 31° S
Cosmos 1464 Rocket 3.9 19:00:55 10° S 19:06:57 64° E 19:13:05 10° NNE
Cosmos 1602 3.8 19:04:27 10° NNW 19:08:19 74° W 19:08:43 66° SSW
Cosmos 1486 Rocket 3.9 19:06:12 10° SSW 19:11:22 61° ESE 19:11:30 61° ESE
USA 234 4.1 19:11:31 30° SE 19:11:31 30° SE 19:17:03 10° SSW
Resurs 01 Rocket 2.8 19:17:57 32° N 19:17:57 32° N 19:20:32 10° N
H-2A R/B 3.1 19:19:10 60° NW 19:19:10 60° NW 19:22:27 10° NNW
Meteor 2-6 Rocket 4.0 19:14:07 10° S 19:19:32 66° E 19:20:07 61° ENE
Lacrosse 5 1.9 19:16:17 10° WSW 19:21:17 61° S 19:21:28 60° SSE
Cosmos 2082 Rocket 3.5 19:16:20 10° NW 19:21:36 38° WSW 19:26:48 10° S
Cosmos 2297 Rocket 3.4 19:16:59 10° NW 19:21:50 28° N 19:22:38 27° NNE
SJ-6B 3.6 19:23:31 46° NNW 19:23:31 46° NNW 19:26:28 10° NNW
Cosmos 2233 Rocket 4.4 19:17:40 10° SSW 19:23:52 62° WNW 19:30:02 10° N
Cosmos 2026 Rocket 4.0 19:20:09 10° N 19:26:22 56° ENE 19:26:25 56° ENE
Cosmos 1680 Rocket 4.0 19:21:36 10° NNW 19:25:52 44° NNE 19:25:52 44° NNE
CZ-4C R/B 3.3 19:21:36 10° WNW 19:28:08 55° SW 19:32:45 24° SSE
Spot 2 Rocket 3.9 19:35:40 51° N 19:35:40 51° N 19:39:40 10° NNW
H-2A R/B 3.9 19:39:49 18° NNE 19:39:49 18° NNE 19:41:40 10° N
NOSS 3-2 (C) 3.7 19:32:23 10° WSW 19:38:52 77° NNW 19:40:34 54° NE
Cosmos 1538 Rocket 4.0 19:33:44 10° NNW 19:39:02 82° WSW 19:39:21 78° S
Okean 1-7 4.4 19:40:36 10° SSW 19:42:58 31° SSW 19:42:58 31° SSW
COSMO-SKYMED 1 3.2 19:47:05 54° WNW 19:47:05 54° WNW 19:51:11 10° SW
Cosmos 923 Rocket 4.4 19:42:33 10° NNW 19:46:43 54° N 19:46:43 54° N
NOSS 3-2 (A) 3.8 19:42:23 10° W 19:48:54 71° N 19:50:15 58° NE
Meteor 1-5 Rocket 4.2 19:43:37 10° NNW 19:49:04 71° WSW 19:49:57 59° SSW
Cosmos 1513 Rocket 4.4 19:44:52 10° SSW 19:51:11 83° WNW 19:57:25 10° NNE
Meteor 1-10 Rocket 4.3 19:45:28 10° SSW 19:51:12 81° WNW 19:53:32 39° N
Cosmos 1844 Rocket 3.4 19:57:52 10° WSW 20:03:21 49° NW 20:04:14 45° N
Cosmos 2219 4.1 19:59:38 10° NW 20:03:48 38° N 20:03:48 38° N
CENTAUR R/B 2.6 20:01:45 10° WSW 20:08:24 86° NNW 20:08:59 77° NE
COSMOS 2455 2.9 20:05:36 10° WSW 20:11:16 74° WNW 20:11:16 74° WNW
Envisat 3.8 20:14:05 48° NW 20:14:05 48° NW 20:17:55 10° NNW
ATLAS CENTAUR R/B 3.7 20:09:55 10° WNW 20:11:01 18° NW 20:11:01 18° NW
Cosmos 2034 Rocket 4.3 20:16:36 10° SSW 20:22:56 66° WNW 20:29:17 10° NNE
Cosmos 2285 Rocket 4.2 20:21:51 10° NW 20:27:36 68° W 20:27:36 68° W
Cosmos 2227 Rocket 3.6 20:30:07 10° NW 20:33:36 30° NNW 20:33:36 30° NNW
Cosmos 2278 Rocket 3.0 20:29:57 10° WSW 20:34:17 47° W 20:34:17 47° W
Cosmos 1607 4.4 20:31:57 10° WNW 20:37:13 59° NW 20:37:13 59° NW
Cosmos 2263 Rocket 3.7 20:35:35 10° WNW 20:40:02 28° NNW 20:40:02 28° NNW
Resurs 01 Rocket 4.2 20:55:32 18° NW 20:55:32 18° NW 20:56:56 10° NNW
ATLAS 3B R/B 3.1 20:46:34 10° WNW 20:52:16 57° NW 20:52:16 57° NW
USA 238 DEB 4.1 20:47:07 10° WNW 20:52:57 60° NW 20:52:57 60° NW
USA 238 4.1 20:47:13 10° WNW 20:53:03 60° NW 20:53:03 60° NW
Lacrosse 5 4.1 20:59:01 10° W 21:00:39 20° W 21:00:39 20° W
Cosmos 2297 Rocket 4.0 21:01:46 10° NW 21:04:26 26° NNW 21:04:26 26° NNW
H-2A R/B 4.4 21:20:27 17° NNW 21:20:27 17° NNW 21:21:38 10° NNW
CENTAUR R/B 4.1 21:52:43 10° W 21:56:10 33° WNW 21:56:10 33° WNW
